This demonstration page uses our WeatherBlox Daily Observations layout. Learn more.

Left ArrowRight Arrow

34.74481, -87.66753

Hourly Observations for May 7, 2017

Temp ( °F °C ) Dew Point ( °F °C ) Humidity (%) Winds ( mph kmh ) Pressure ( in mb ) Visibility ( mi km ) Precip ( " mm )
12:53 am 00:53 Cloudy 59 15 53 11.7 81 81 Calm 29.95 1014 10 16 0.00 0.00
1:53 am 01:53 Partly Cloudy 58 14.4 50 10 75 75 ENE 5 7 29.95 1014 10 16 0.00 0.00
2:53 am 02:53 Clear 56 13.3 48 8.9 75 75 ENE 5 7 29.96 1014 10 16 0.00 0.00
3:53 am 03:53 Clear 52 11.1 46 7.8 80 80 Calm 29.98 1015 10 16 0.00 0.00
4:53 am 04:53 Clear 51 10.6 45 7.2 80 80 Calm 30.00 1016 10 16 0.00 0.00
5:53 am 05:53 Clear 48 8.9 44 6.7 86 86 Calm 30.01 1016 10 16 0.00 0.00
6:53 am 06:53 Sunny 51 10.6 48 8.9 89 89 Calm 30.04 1017 10 16 0.00 0.00
7:53 am 07:53 Sunny 57 13.9 47 8.3 69 69 E 7 11 30.06 1018 10 16 0.00 0.00
8:53 am 08:53 Sunny 61 16.1 42 5.6 50 50 VRB 5 7 30.07 1018 10 16 0.00 0.00
9:53 am 09:53 Sunny 63 17.2 40 4.4 43 43 VRB 5 7 30.08 1019 10 16 0.00 0.00
10:53 am 10:53 Sunny 65 18.3 38 3.3 37 37 E 3 6 30.09 1019 10 16 0.00 0.00
11:53 am 11:53 Sunny 67 19.4 40 4.4 37 37 Calm 30.08 1019 10 16 0.00 0.00
12:53 pm 12:53 Sunny 69 20.6 44 6.7 41 41 NNW 8 13 30.07 1018 10 16 0.00 0.00
1:53 pm 13:53 Sunny 71 21.7 44 6.7 38 38 NW 5 7 30.06 1018 10 16 0.00 0.00
2:53 pm 14:53 Sunny 72 22.2 41 5 33 33 Calm 30.04 1017 10 16 0.00 0.00
3:53 pm 15:53 Sunny 72 22.2 45 7.2 38 38 W 7 11 30.02 1017 10 16 0.00 0.00
4:53 pm 16:53 Sunny 73 22.8 45 7.2 37 37 WNW 6 9 30.01 1016 10 16 0.00 0.00
5:53 pm 17:53 Sunny 72 22.2 46 7.8 40 40 WNW 6 9 30.01 1016 10 16 0.00 0.00
6:53 pm 18:53 Sunny 70 21.1 47 8.3 44 44 Calm 30.00 1016 10 16 0.00 0.00
7:53 pm 19:53 Clear 66 18.9 45 7.2 47 47 N 3 6 30.01 1016 10 16 0.00 0.00
8:53 pm 20:53 Clear 59 15 49 9.4 69 69 Calm 30.02 1017 10 16 0.00 0.00
9:53 pm 21:53 Clear 55 12.8 49 9.4 80 80 Calm 30.03 1017 10 16 0.00 0.00
10:53 pm 22:53 Clear 53 11.7 49 9.4 86 86 Calm 30.03 1017 10 16 0.00 0.00
11:53 pm 23:53 Clear 52 11.1 48 8.9 86 86 Calm 30.04 1017 10 16 0.00 0.00

Powered by AerisWeather